www.pogodaiklimat.ru

Погода и климат >> Архив погоды >> Бразилия >> Парана >> Планарту


ПОГОДА в Планарту

  • Прогноз погоды в Планарту
  • Монитор погоды в Планарту

АРХИВ ПОГОДЫ в Планарту

Время (UTC), дата Ветер
(напр.,м/с)
 
Видим.   Явления Облачность Т
(С)
Тd
(С)
f
(%)
Тe
(С)
Тes
(С)
Комфортность P
(гПа)
Po
(гПа)
Тmin
(С)
Tmax
(С)
R
(мм)
R24
(мм)
S
(см)
04 15.04 штиль 0 н/о н/о +22.3 +19 +19 1014.8 969.0
05 15.04 штиль 0 н/о н/о +21.3 +19 +19 1014.8 968.9
06 15.04 штиль 0
{2}
н/о н/о +20.5 +19 +19 1014.9 968.8
07 15.04 штиль 0
{1}
н/о н/о +20.8 +19 +19 1014.9 968.9
09 15.04 штиль 0
{2}
н/о н/о +20.1 +19 +19 1015.7 969.5
10 15.04 штиль 0
{2}
н/о н/о +20.4 +19 +19 1016.3 970.2
11 15.04 штиль 0
{2}
н/о н/о +22.7 +19 +19 1016.7 970.9
12 15.04 В 1
{3}
н/о н/о +24.0 +20 +20 1016.9 971.3
13 15.04 штиль 0
{3}
н/о н/о +26.4 +12.6 42 +28 +28 жарко 1016.5 971.2
14 15.04 штиль 0
{3}
н/о н/о +27.8 -4.2 12 +25 +25 комфорт 1015.9 970.9
15 15.04 штиль 0
{3}
н/о н/о +29.3 -11.3 6 +25 +25 комфорт 1015.1 970.3
16 15.04 штиль 0
{3}
н/о н/о +30.7 -19.2 3 +26 +26 жарко 1013.9 969.4
17 15.04 штиль 0
{2}
н/о н/о +31.2 -19.1 3 +26 +26 жарко 1012.8 968.4
18 15.04 С 1
{3}
н/о н/о +31.3 -19.0 3 +27 +27 жарко 1011.9 967.6
19 15.04 штиль 0
{3}
н/о н/о +30.9 -19.3 3 +26 +26 жарко 1012.1 967.7
20 15.04 штиль 0 н/о н/о +30.4 -19.6 3 +26 +26 жарко 1012.4 967.9
21 15.04 штиль 0 н/о н/о +27.5 -6.4 10 +24 +24 комфорт 1012.7 967.8
22 15.04 штиль 0
{3}
н/о н/о +26.8 -6.4 11 +24 +24 комфорт 1013.6 968.5
23 15.04 штиль 0
{3}
н/о н/о +25.1 +4.8 27 +25 +25 комфорт 1014.0 968.7
00 16.04 штиль 0 н/о н/о +25.5 +2.7 23 +24 +24 комфорт 1014.6 969.3
01 16.04 штиль 0
{2}
н/о н/о +23.5 +20 +20 1015.0 969.4
02 16.04 штиль 0
{1}
н/о н/о +23.6 +20 +20 1015.2 969.6
03 16.04 штиль 0 н/о н/о +22.0 +19 +19 1015.2 969.3
04 16.04 штиль 0 н/о н/о +23.1 +19 +19 1015.7 970.0
05 16.04 штиль 0 н/о н/о +21.8 +19 +19 1015.3 969.4
06 16.04 ЮВ 1
{5}
н/о н/о +21.6 +19 +19 1014.5 968.6
07 16.04 штиль 0
{4}
н/о н/о +20.9 +19 +19 1014.1 968.1
08 16.04 штиль 0 н/о н/о +20.4 +19 +19 1013.8 967.8
09 16.04 штиль 0 н/о н/о +20.2 +19 +19 1014.9 968.8
10 16.04 штиль 0 н/о н/о +20.0 +19 +19 1015.4 969.2
11 16.04 штиль 0
{1}
н/о н/о +22.8 +19 +19 1015.2 969.5
12 16.04 штиль 0 н/о н/о +26.3 +7.7 31 +26 +26 жарко 1015.0 969.8
13 16.04 штиль 0
{1}
н/о н/о +26.9 -5.4 12 +24 +24 комфорт 1014.9 969.8
14 16.04 штиль 0
{2}
н/о н/о +29.2 -20.3 3 +25 +25 комфорт 1014.3 969.6
15 16.04 штиль 0
{3}
н/о н/о +28.9 -20.6 3 +24 +24 комфорт 1013.9 969.1
16 16.04 З 3
{4}
н/о н/о +29.5 -20.3 3 +25 +25 комфорт 1012.9 968.3
17 16.04 ЮЗ 3
{4}
н/о н/о +29.4 -20.3 3 +25 +25 комфорт 1012.4 967.8
18 16.04 З 3
{5}
н/о н/о +30.1 -19.8 3 +25 +25 комфорт 1011.5 967.0
19 16.04 З 4
{6}
н/о н/о +29.8 -20.0 3 +25 +25 комфорт 1011.3 966.8
20 16.04 штиль 0
{5}
н/о н/о +27.4 -14.4 6 +24 +24 комфорт 1011.9 967.0
21 16.04 ЮЗ 2
{4}
н/о н/о +24.9 -7.8 11 +22 +22 комфорт 1012.3 967.0
22 16.04 штиль 0
{3}
н/о н/о +22.9 +9.4 42 +24 +24 комфорт 1012.5 966.9
23 16.04 штиль 0
{3}
н/о н/о +22.4 +19 +19 1012.8 967.1
00 17.04 штиль 0
{3}
н/о н/о +20.6 +19 +19 1013.5 967.5
01 17.04 штиль 0 н/о н/о +19.4 +18 +18 1014.0 967.8
02 17.04 штиль 0 н/о н/о +18.3 +18 +18 1014.1 967.7
03 17.04 штиль 0 н/о н/о +17.8 +18 +18 1014.2 967.7
04 17.04 штиль 0 н/о н/о +18.0 +18 +18 1014.0 967.6
05 17.04 штиль 0 н/о н/о +17.7 +18 +18 1013.9 967.4
06 17.04 штиль 0 н/о н/о +16.9 +17 +17 1013.8 967.2
07 17.04 штиль 0 н/о н/о +16.1 +16 +16 1013.6 966.9
08 17.04 штиль 0 н/о н/о +16.6 +17 +17 1013.5 966.9 0.2
09 17.04 штиль 0 н/о н/о +16.3 +16 +16 1013.9 967.2
10 17.04 штиль 0 н/о н/о +16.3 +16 +16 1014.5 967.8
11 17.04 штиль 0 н/о н/о +16.4 +17 +17 1015.1 968.4
12 17.04 штиль 0
{2}
н/о н/о +18.1 +18 +18 1015.6 969.1 0.2
13 17.04 штиль 0
{1}
н/о н/о +21.7 +19 +19 1015.0 969.1
14 17.04 штиль 0
{2}
н/о н/о +23.3 +19 +19 1014.4 968.8
15 17.04 штиль 0
{4}
н/о н/о +26.6 -7.1 10 +24 +24 комфорт 1013.5 968.4
16 17.04 З 1
{4}
н/о н/о +27.8 -21.4 3 +23 +23 комфорт 1012.4 967.5
17 17.04 штиль 0
{3}
н/о н/о +28.3 -21.0 3 +24 +24 комфорт 1011.5 966.7
18 17.04 штиль 0
{4}
н/о н/о +29.3 -20.4 3 +25 +25 комфорт 1010.7 966.1
19 17.04 штиль 0
{3}
н/о н/о +28.5 -20.9 3 +24 +24 комфорт 1010.5 965.8
20 17.04 штиль 0
{2}
н/о н/о +27.3 -21.7 3 +23 +23 комфорт 1010.8 965.9
21 17.04 штиль 0
{2}
н/о н/о +24.0 -23.9 3 +21 +21 комфорт 1011.4 966.0
22 17.04 штиль 0 н/о н/о +21.1 -6.7 15 +20 +20 1012.0 966.2
23 17.04 штиль 0 н/о н/о +20.0 +19 +19 1012.7 966.7
00 18.04 штиль 0 н/о н/о +19.4 +18 +18 1013.2 967.0
01 18.04 штиль 0 н/о н/о +18.7 +18 +18 1013.4 967.1
02 18.04 штиль 0 н/о н/о +18.1 +18 +18 1013.7 967.3
03 18.04 штиль 0 н/о н/о +16.4 +17 +17 1014.1 967.4
04 18.04 штиль 0 н/о н/о +16.1 +16 +16 1014.4 967.7
05 18.04 штиль 0 н/о н/о +15.2 +15 +15 1014.3 967.4
06 18.04 штиль 0 н/о н/о +13.7 +14 +14 1014.2 967.1
07 18.04 штиль 0 н/о н/о +14.6 +15 +15 1013.7 966.8
08 18.04 штиль 0 н/о н/о +14.6 +15 +15 1013.8 966.9
09 18.04 штиль 0 н/о н/о +13.3 +14 +14 1014.4 967.2
10 18.04 штиль 0 н/о н/о +13.1 +13 +13 1015.1 967.9 0.2
11 18.04 штиль 0
{1}
н/о н/о +15.3 +16 +16 1015.6 968.7
12 18.04 штиль 0
{1}
н/о н/о +17.7 +18 +18 1015.8 969.3
13 18.04 штиль 0
{1}
н/о н/о +21.0 +19 +19 1015.6 969.6
14 18.04 штиль 0 н/о н/о +22.9 +8.3 39 +24 +24 комфорт 1015.1 969.4
15 18.04 штиль 0 н/о н/о +25.6 -22.3 3 +22 +22 комфорт 1014.0 968.7
16 18.04 штиль 0
{3}
н/о н/о +27.0 -21.9 3 +23 +23 комфорт 1012.6 967.6
17 18.04 штиль 0
{1}
н/о н/о +28.3 -21.0 3 +24 +24 комфорт 1011.5 966.7
18 18.04 штиль 0
{2}
н/о н/о +29.0 -20.6 3 +24 +24 комфорт 1010.4 965.8
19 18.04 штиль 0
{2}
н/о н/о +28.9 -20.6 3 +24 +24 комфорт 1010.3 965.7
20 18.04 штиль 0
{2}
н/о н/о +27.6 -21.5 3 +23 +23 комфорт 1010.4 965.6
21 18.04 штиль 0
{2}
н/о н/о +24.3 -23.7 3 +21 +21 комфорт 1011.0 965.7
22 18.04 штиль 0 н/о н/о +22.4 -13.0 8 +20 +20 1011.5 965.9
23 18.04 штиль 0 н/о н/о +22.0 -7.4 13 +20 +20 1012.0 966.3
00 19.04 штиль 0 н/о н/о +18.8 +18 +18 1012.9 966.7
01 19.04 штиль 0 н/о н/о +19.1 +18 +18 1013.1 966.9
02 19.04 штиль 0 н/о н/о +19.7 +19 +19 1013.1 967.0
03 19.04 штиль 0 н/о н/о +17.2 +17 +17 1013.4 966.9
04 19.04 штиль 0 н/о н/о +17.5 +18 +18 1013.2 966.7
05 19.04 штиль 0
{2}
н/о н/о +16.8 +17 +17 1013.2 966.6
06 19.04 штиль 0 н/о н/о +17.9 +18 +18 1013.1 966.7
07 19.04 штиль 0 н/о н/о +16.8 +17 +17 1013.6 967.0
08 19.04 штиль 0 н/о н/о +16.5 +17 +17 1013.7 967.1
09 19.04 штиль 0 н/о н/о +16.3 +16 +16 1014.4 967.7
10 19.04 штиль 0 н/о н/о +17.1 +17 +17 1015.0 968.4
11 19.04 штиль 0
{3}
н/о н/о +19.2 +18 +18 1015.3 969.0
12 19.04 В 1
{4}
н/о н/о +21.5 +20.8 96 +27 +27 душно 1015.3 969.4
13 19.04 штиль 0
{3}
н/о н/о +23.7 -10.3 10 +21 +21 комфорт 1014.9 969.3
14 19.04 штиль 0
{3}
н/о н/о +27.4 -21.7 3 +23 +23 комфорт 1014.2 969.2
15 19.04 штиль 0 н/о н/о +29.3 -20.4 3 +25 +25 комфорт 1013.2 968.5
16 19.04 штиль 0
{3}
н/о н/о +30.1 -19.8 3 +25 +25 комфорт 1012.2 967.7
17 19.04 штиль 0
{3}
н/о н/о +31.8 -18.7 3 +27 +27 жарко 1011.1 966.9
18 19.04 штиль 0
{3}
н/о н/о +31.5 -18.9 3 +27 +27 жарко 1010.8 966.5
19 19.04 штиль 0
{3}
н/о н/о +30.5 -19.6 3 +26 +26 жарко 1010.2 965.8
20 19.04 штиль 0 н/о н/о +29.2 -20.4 3 +25 +25 комфорт 1010.4 965.8
21 19.04 штиль 0 н/о н/о +27.0 -21.9 3 +23 +23 комфорт 1010.9 966.0
22 19.04 штиль 0 н/о н/о +24.1 -7.4 12 +22 +22 комфорт 1011.2 965.8
23 19.04 штиль 0 н/о н/о +24.1 -4.8 14 +22 +22 комфорт 1011.8 966.4
00 20.04 штиль 0 н/о н/о +22.3 +19 +19 1012.6 966.9
01 20.04 штиль 0 н/о н/о +21.9 +19 +19 1012.7 966.9
02 20.04 штиль 0 н/о н/о +22.3 +19 +19 1012.5 966.8
03 20.04 штиль 0 н/о н/о +21.7 +19 +19 1012.8 967.0
04 20.04 штиль 0 н/о н/о +21.5 +19 +19 1012.8 967.0
05 20.04 штиль 0 н/о н/о +20.8 +19 +19 1012.3 966.4
06 20.04 штиль 0 н/о н/о +20.0 +19 +19 1011.8 965.8
07 20.04 штиль 0 н/о н/о +20.3 +19 +19 1011.8 965.8
08 20.04 штиль 0
{2}
н/о н/о +20.9 +19 +19 1012.4 966.5
09 20.04 штиль 0 н/о н/о +20.6 +19 +19 1013.1 967.1
10 20.04 штиль 0 н/о н/о +20.9 +19 +19 1013.8 967.8
11 20.04 штиль 0 н/о н/о +22.1 +19 +19 1014.0 968.2
12 20.04 штиль 0 н/о н/о +24.7 +21 +21 комфорт 1013.5 968.1
13 20.04 штиль 0 н/о н/о +25.5 +2.2 22 +24 +24 комфорт 1013.0 967.8
14 20.04 штиль 0
{2}
н/о н/о +26.8 -13.3 6 +23 +23 комфорт 1012.6 967.6
15 20.04 штиль 0
{3}
н/о н/о +27.9 -21.3 3 +24 +24 комфорт 1012.2 967.4
16 20.04 штиль 0
{3}
н/о н/о +28.4 -19.5 3 +24 +24 комфорт 1011.3 966.6
17 20.04 штиль 0
{3}
н/о н/о +27.3 -9.5 8 +24 +24 комфорт 1009.9 965.1
18 20.04 штиль 0 н/о н/о +25.6 +11.0 40 +27 +27 жарко 1009.4 964.3
19 20.04 штиль 0 н/о н/о +24.9 +23.5 92 +34 +34 очень
душно
1009.8 964.6
20 20.04 ЮВ 2
{6}
н/о н/о +22.1 +19 +19 1011.3 965.6
21 20.04 штиль 0
{9}
н/о н/о +18.6 +18 +18 1014.1 967.8 14
22 20.04 ЮВ 4
{6}
н/о н/о +19.1 +19 +19 1013.8 967.6 6
23 20.04 ЮВ 4
{5}
н/о н/о +19.2 +19 +19 1014.9 968.6 5
00 21.04 В 3
{6}
н/о н/о +19.0 +19 +19 1014.1 967.8 4
01 21.04 штиль 0
{4}
н/о н/о +19.0 +18 +18 1013.7 967.5 0.2
02 21.04 штиль 0
{3}
н/о н/о +18.9 +18 +18 1013.0 966.8
03 21.04 штиль 0
{3}
н/о н/о +19.3 +18 +18 1012.4 966.3
04 21.04 штиль 0
{3}
н/о н/о +19.2 +18 +18 1012.2 966.1
05 21.04 штиль 0 н/о н/о +18.9 +18 +18 1012.1 965.9
06 21.04 штиль 0
{2}
н/о н/о +19.0 +18 +18 1011.2 965.1
07 21.04 штиль 0
{2}
н/о н/о +19.0 +18 +18 1010.3 964.2 0.2
08 21.04 штиль 0 н/о н/о +18.8 +18 +18 1009.8 963.7
09 21.04 штиль 0 н/о н/о +18.4 +18 +18 1010.2 964.0
10 21.04 штиль 0
{2}
н/о н/о +18.9 +18 +18 1011.2 965.1
11 21.04 штиль 0
{3}
н/о н/о +19.4 +18 +18 1011.4 965.3
12 21.04 штиль 0
{3}
н/о н/о +20.4 +19 +19 1011.3 965.4
13 21.04 штиль 0
{3}
н/о н/о +20.5 +19 +19 1011.6 965.7
14 21.04 штиль 0
{3}
н/о н/о +20.7 +19 +19 1011.4 965.5
15 21.04 ЮЗ 2
{8}
н/о н/о +20.6 +20 +20 1012.4 966.5 3
16 21.04 штиль 0
{8}
н/о н/о +19.8 +19 +19 1012.4 966.3 18
17 21.04 штиль 0
{3}
н/о н/о +20.1 +19 +19 1012.5 966.5 6
18 21.04 штиль 0
{5}
н/о н/о +19.5 +19 +19 1013.0 966.9 2
19 21.04 ЮВ 3
{6}
н/о н/о +20.1 +19 +19 1010.7 964.8 3
20 21.04 С 1
{5}
н/о н/о +19.9 +20 +20 1011.4 965.4
21 21.04 штиль 0
{3}
н/о н/о +19.2 +18 +18 1011.4 965.3
22 21.04 штиль 0 н/о н/о +18.8 +18 +18 1011.5 965.3
23 21.04 штиль 0
{2}
н/о н/о +18.9 +18 +18 1011.9 965.7
00 22.04 штиль 0
{2}
н/о н/о +19.1 +18 +18 1012.8 966.6
01 22.04 В 1
{2}
н/о н/о +18.9 +20 +20 1012.4 966.2
02 22.04 штиль 0
{2}
н/о н/о +18.8 +18 +18 1012.3 966.1
03 22.04 штиль 0 н/о н/о +19.1 +18 +18 1012.5 966.3
04 22.04 штиль 0 н/о н/о +19.1 +18 +18 1012.4 966.2

 

Местоположение метеостанции Планарту (Парана, Бразилия): широта -25.72 долгота -53.75 высота над уровнем моря 348 м.

В архиве по умолчанию представлена погода в Планарту за последнюю неделю. Архивные данные за месяц целиком и за предыдущие месяцы, начиная с января 2011 года, Вы можете получить, выбрав интересующий диапазон дат из раскрывающегося списка и нажав кнопку "Ввод!".


*Определитесь, кто Вы:
робот инопланетянин человек

Внимание! Время в таблицах - всемирное. Для получения местного времени необходимо прибавить поправку, которая равна -3 ч.

Смотрите также архив погоды в соседних городах и на ближайших метеорологических станциях:

Погода в Дионисио Серкейра (Парана, Бразилия) (63 км)
Погода в Дойс-Визиньюсе (Парана, Бразилия) (65 км)
Погода в Игуасу (Аргентина) (71 км)
Погода в Фос-ду-Игуасу (Парана, Бразилия) (74 км)
Погода в Фос-ду-Игуасу (Парана, Бразилия) (86 км)
Погода в Аэропорту Гуарани (Парагвай) (114 км)
Погода в Ново-Оризонти (Санта-Катарина, Бразилия) (118 км)
Погода в Сан-Мигель-ду-Осте (Санта-Катарина, Бразилия) (121 км)
Погода в Марешал-Кандиду-Рондоне (Парана, Бразилия) (135 км)
Погода в Кампина-да-Лагоа (Парана, Бразилия) (160 км)

Пояснения к столбцам:

Ветер - указаны скорость ветра в м/с - средняя за 10 мин, порывы в срок и между сроками (в фигурных скобках) и направление, откуда дует ветер: С - северный, СВ - северо-восточный, В - восточный, ЮВ - юго-восточный, Ю - южный, ЮЗ - юго-западный, З - западный, СЗ - северо-западный.
Видимость - горизонтальная дальность видимости в метрах или километрах. При видимости от 1 до 10 км при отсутствии осадков обычно наблюдается дымка, при ухудшении видимости до 1 км и менее - туман. В сухую погоду видимость может ухудшаться дымом, пылью или мглою.
Явления - указаны атмосферные явления, наблюдавшиеся в срок или в последний час перед сроком; фигурными скобками обозначены явления, наблюдавшиеся между сроками (за 1-3 часа до срока); квадратными скобками обозначены град или гололедные отложения с указанием их диаметра в мм.
Облачность - указаны через наклонную черту общая и нижняя облачность в баллах и высота нижней границы облаков в метрах; квадратными скобками обозначены формы облаков: Ci - перистые, Cs - перисто-слоистые, Cc - перисто-кучевые, Ac - высококучевые, As - высокослоистые, Sc - слоисто-кучевые, Ns - слоисто-дождевые, Cu - кучевые, Cb - кучево-дождевые. Подробнее классификацию облаков см. в Атласе облаков (PDF).
T - Температура воздуха - температура, измеренная на высоте 2 м над землей.
Td - Температура точки росы - температура, при понижении до которой содержащийся в воздухе водяной пар достигнет насыщения.
f - Относительная влажность воздуха - влажноcть воздуха, измеренная на высоте 2 м над землей.
Te - Эффективная температура - температура, которую ощущает одетый по сезону человек в тени. Характеристика душности погоды. При расчете учитывается влияние влажности воздуха и скорости ветра на теплоощущения человека.
Tes - Эффективная температура на солнце - температура, которую ощущает человек, с поправкой на солнечный нагрев. Характеристика знойности погоды. Зависит от высоты солнца над горизонтом, облачности и скорости ветра. Ночью, в пасмурную погоду, а также при ветре 12 м/с и более поправка равна нулю.
P - Атмосферное давление - приведенное к уровню моря атмосферное давление.
Po - Атмосферное давление - измеренное на уровне метеостанции атмосферное давление.
Tmin - Минимальная температура - минимум температуры воздуха на высоте 2 м над землей.
Tmax - Максимальная температура - максимум температуры воздуха на высоте 2 м над землей.
R - Количество осадков - Количество выпавших осадков за период времени, мм. При наведении курсора мыши на число - период времени, за который выпало указанное количество осадков.
R24 - Количество осадков - Количество выпавших осадков за 24 часа, мм.
S - Снежный покров - Высота снежного покрова, см. При наведении курсора мыши на число - состояние снежного покрова и степень покрытия местности в баллах.